Zurück zum Katalog

CZ-6A DEB

AktivPO
NORAD 60653·DEBRIS·🇨🇳 China

Gestartet Aug 6, 2024 von Taiyuan Satellite Launch Center

Loading…

Nächste Überflüge (nächste 24 Stunden)

TLE

AktuellSource: Space-Track

Epoche: Sep 14, 2026, 09:37 UTC

1 60653U 24140BE  26257.40108425  .00000361  00000-0  12244-3 0  9993
2 60653  88.6549 230.5589 0027387 328.2970  31.6577 14.34304179109670

Verfolge CZ-6A DEB in Echtzeit mit AllMySat

Download on the App Store